[[{"header":{"parameterUnit":"m.s-1","parameterCategory":1,"la1":30.2991,"la2":30.254,"lo1":-89.0895,"lo2":-89.0444,"dy":0.0017,"dx":0.0017,"nx":28,"ny":28,"refTime":"2023-09-30T21:00:00:Z","depth":0,"parameterNumber":2,"parameterNumberName":"U-component_of_WINDS"},"data":[0,0,0,0,0,0,0,0,0,0,0,0,0,0,0,0,0,0,0,0,0,0,0,0,0,0,0,0,0,0,0,0,0,0,0,0,0,0,0,0,0,0,0,0,0,0,0,0,0,0,0,0,0,0,0,0,0,0,-4.4067,-4.4066,0,-4.4024,-4.4024,-4.4023,-4.3881,-4.3878,-4.3875,-4.3872,-4.3832,-4.3834,-4.3836,0,0,0,0,0,0,0,0,0,0,0,0,0,-4.4029,-4.4031,-4.4067,-4.4066,-4.4065,-4.4024,-4.4024,-4.4023,-4.3882,-4.3878,-4.3874,-4.387,-4.3831,-4.3833,-4.3836,0,0,0,0,0,0,0,0,0,0,0,0,0,-4.4022,-4.4031,-4.4067,-4.399,-4.3983,-4.4024,-4.4024,-4.4023,-4.3883,-4.3878,-4.3873,-4.3868,-4.383,-4.3833,-4.3836,-4.395,0,0,-4.3845,-4.3846,0,0,0,0,0,0,0,0,-4.4023,-4.4024,-4.4002,-4.3995,-4.3987,-4.3953,-4.3996,-4.3998,-4.3884,-4.3921,-4.3872,-4.3866,-4.3876,-4.3875,-4.3878,-4.3948,-4.3946,-4.3845,-4.3847,-4.3848,-4.3849,0,0,0,0,0,0,0,-4.4023,-4.4025,-4.405,-4.4002,-4.3993,-4.3959,-4.3953,-4.3996,-4.3926,-4.3917,-4.3907,-4.3903,-4.3871,-4.3875,-4.3876,-4.3945,-4.3845,-4.3848,-4.3849,-4.385,-4.4109,-4.4114,0,0,0,0,0,0,-4.4034,-4.4026,-4.4051,-4.4048,-4.3993,-4.3964,-4.3956,-4.3969,-4.3925,-4.3914,-4.3908,-4.3897,-4.3873,-4.3873,-4.3874,-4.4006,-4.3848,-4.3851,-4.3852,-4.4104,-4.4111,-4.4116,0,0,0,0,0,0,-4.4034,-4.4038,-4.4053,-4.4034,-4.4034,-4.3969,-4.3984,-4.3971,-4.3974,-4.3918,-4.3905,-4.3924,-4.3869,-4.387,-4.3932,-4.4003,-4.3852,-4.3855,-4.4098,-4.4106,-4.4113,-4.427,0,0,0,0,0,0,-4.4034,-4.4039,-4.408,-4.4036,-4.4035,-4.4111,-4.3988,-4.3973,-4.3979,-4.3965,-4.393,-4.392,-4.3865,-4.3929,-4.3935,-4.4004,-4.3857,-4.4092,-4.4102,-4.4111,-4.4259,-4.4283,-4.4303,0,0,0,0,0,-4.4033,-4.4126,-4.4083,-4.4087,-4.4086,-4.4115,-4.4115,-4.405,-4.3985,-4.4027,-4.3991,-4.3921,-4.3993,-4.3936,-4.3942,-4.4013,-4.4087,-4.4099,-4.411,-4.4249,-4.4278,-4.4303,0,0,0,0,0,0,-4.4181,-4.4119,-4.407,-4.4152,-4.414,-4.4091,-4.4142,-4.4082,-4.4089,-4.4075,-4.3995,-4.3988,-4.4063,-4.4043,-4.3981,-4.4122,-4.4029,-4.4042,-4.4132,-4.4159,-4.4181,-4.4185,-4.3859,0,0,0,0,0,-4.4223,-4.4251,-4.4196,-4.4273,-4.427,-4.4208,-4.4218,-4.4169,-4.4153,-4.4148,-4.4116,-4.4105,-4.4126,-4.4141,-4.4156,-4.4255,-4.4247,-4.4306,-4.4328,-4.4347,-4.436,-4.4414,-4.444,-4.4154,-4.4154,-4.4154,0,0,-4.431,-4.428,-4.4303,-4.4303,-4.4287,-4.432,-4.4204,-4.4243,-4.4267,-4.4154,-4.4212,-4.4188,-4.4171,-4.4253,-4.4287,-4.4239,-4.4437,-4.4362,-4.4377,-4.438,-4.4428,-4.4456,-4.448,-4.4162,-4.4161,-4.4159,0,0,-4.4487,-4.4465,-4.4529,-4.4516,-4.4495,-4.4453,-4.4468,-4.4429,-4.4409,-4.4465,-4.4381,-4.4409,-4.4446,-4.4437,-4.4438,-4.4613,-4.455,-4.462,-4.4737,-4.479,-4.4813,-4.4832,-4.4898,-4.4922,-4.4633,-4.4634,-4.4634,0,-4.4598,-4.4643,-4.457,-4.4615,-4.4618,-4.4516,-4.4581,-4.4573,-4.4558,-4.4564,-4.4509,-4.4554,-4.4535,-4.4615,-4.4658,-4.466,-4.4678,-4.4625,-4.4815,-4.4834,-4.4851,-4.4913,-4.4937,-4.4643,-4.4642,-4.4641,-4.464,0,-4.4783,-4.4816,-4.487,-4.4858,-4.4867,-4.4922,-4.4859,-4.4877,-4.4827,-4.4792,-4.4852,-4.4825,-4.4835,-4.4849,-4.4801,-4.4923,-4.4895,-4.4829,-4.4734,-4.4889,-4.4946,-4.4968,-4.4655,-4.4652,-4.465,-4.4647,0,0,-4.5052,-4.4999,-4.5021,-4.5015,-4.4984,-4.5009,-4.506,-4.5068,-4.5087,-4.5081,-4.5123,-4.5157,-4.5097,-4.5098,-4.5047,-4.5094,-4.5238,-4.5022,-4.5021,-4.5066,-4.5374,-4.5426,-4.5454,-4.5194,-4.5198,-4.5202,-4.5377,0,-4.5222,-4.5306,-4.5242,-4.5338,-4.5368,-4.5272,-4.5317,-4.5305,-4.5273,-4.5296,-4.5261,-4.5287,-4.5204,-4.5204,-4.5246,-4.5212,-4.5299,-4.5198,-4.5236,-4.5238,-4.5246,-4.5483,-4.5537,-4.5704,-4.5398,-4.5402,-4.5404,0,-4.5431,-4.5434,-4.5534,-4.5498,-4.5508,-4.555,-4.5554,-4.5576,-4.556,-4.5534,-4.5536,-4.5474,-4.5524,-4.5429,-4.5498,-4.5431,-4.5443,-4.5429,-4.5433,-4.5437,-4.5333,-4.5496,-4.5755,-4.5781,-4.5438,-4.5435,-4.5433,0,-4.5622,-4.565,-4.5713,-4.5711,-4.5671,-4.5703,-4.5687,-4.5666,-4.5677,-4.568,-4.5686,-4.5696,-4.5702,-4.5712,-4.5656,-4.5591,-4.5733,-4.5633,-4.5715,-4.5717,-4.5752,-4.5751,-4.6019,-4.5755,-4.5755,-4.5754,-4.5754,0,-4.5819,-4.5885,-4.5799,-4.5838,-4.5909,-4.5835,-4.5908,-4.5883,-4.5865,-4.59,-4.5817,-4.5851,-4.5773,-4.58,-4.5755,-4.5821,-4.5824,-4.5806,-4.5794,-4.5815,-4.5818,-4.5824,-4.5812,-4.5761,-4.5759,-4.5758,-4.5757,0,-4.6045,-4.5989,-4.6053,-4.6009,-4.6,-4.6055,-4.6018,-4.6054,-4.6016,-4.6061,-4.6068,-4.601,-4.6038,-4.5982,-4.6001,-4.5972,-4.6066,-4.6034,-4.6071,-4.6063,-4.615,-4.6144,-4.6434,-4.6469,-4.618,-4.6183,-4.6185,0,-4.6176,-4.6224,-4.6186,-4.6202,-4.6192,-4.6219,-4.6229,-4.6159,-4.6173,-4.6159,-4.6198,-4.6218,-4.6231,-4.628,-4.6241,-4.6256,-4.6226,-4.6327,-4.6228,-4.6249,-4.6231,-4.623,-4.6236,-4.6348,-4.6352,-4.6354,-4.6357,0,-4.6416,-4.6386,-4.6403,-4.6411,-4.6425,-4.6428,-4.6426,-4.6444,-4.637,-4.639,-4.6417,-4.6427,-4.6447,-4.647,-4.6476,-4.6462,-4.6399,-4.6388,-4.6408,-4.6432,-4.6453,-4.6445,-4.613,-4.6382,-4.638,-4.6378,-4.6376,-4.6375,-4.6599,-4.6639,-4.6619,-4.6641,-4.6631,-4.6631,-4.6663,-4.663,-4.6651,-4.6662,-4.6619,-4.6657,-4.6641,-4.6643,-4.6636,-4.6666,-4.6621,-4.665,-4.6657,-4.6667,-4.6682,-4.6446,-4.6666,-4.6665,-4.6665,-4.6664,-4.6663,0,-4.6837,-4.682,-4.6841,-4.684,-4.6858,-4.6795,-4.6789,-4.6809,-4.6843,-4.6833,-4.6848,-4.688,-4.6902,-4.6865,-4.6881,-4.6912,-4.6884,-4.6919,-4.6917,-4.6916,-4.672,-4.6702,-4.6942,-4.6942,-4.6942,-4.6942,-4.6942,-4.6942,-4.6964,-4.7027,-4.6996,-4.7055,-4.7037,-4.7072,-4.7075,-4.7075,-4.7068,-4.7107,-4.7125,-4.71,-4.708,-4.7095,-4.7113,-4.7101,-4.7113,-4.7159,-4.7138,-4.6956,-4.6929,-4.6903,-4.6886,-4.7161,-4.7162,-4.7332,-4.7334,-4.7335]},{"header":{"parameterUnit":"m.s-1","parameterCategory":1,"la1":30.2991,"la2":30.254,"lo1":-89.0895,"lo2":-89.0444,"dy":0.0017,"dx":0.0017,"nx":28,"ny":28,"refTime":"2023-09-30T21:00:00:Z","depth":0,"parameterNumber":3,"parameterNumberName":"V-component_of_WINDS"},"data":[0,0,0,0,0,0,0,0,0,0,0,0,0,0,0,0,0,0,0,0,0,0,0,0,0,0,0,0,0,0,0,0,0,0,0,0,0,0,0,0,0,0,0,0,0,0,0,0,0,0,0,0,0,0,0,0,0,0,0.2076,0.2075,0,0.2012,0.2012,0.2011,0.1996,0.1996,0.1997,0.1997,0.1927,0.1924,0.1922,0,0,0,0,0,0,0,0,0,0,0,0,0,0.2178,0.2177,0.2076,0.2075,0.2074,0.2013,0.2012,0.2011,0.1996,0.1996,0.1997,0.1997,0.1927,0.1925,0.1922,0,0,0,0,0,0,0,0,0,0,0,0,0,0.2126,0.2176,0.2076,0.2059,0.2057,0.2013,0.2012,0.2011,0.1996,0.1996,0.1997,0.1998,0.1928,0.1925,0.1922,0.1887,0,0,0.1911,0.191,0,0,0,0,0,0,0,0,0.2129,0.2123,0.2063,0.2061,0.2058,0.2013,0.2022,0.1969,0.1996,0.2019,0.1997,0.1998,0.1954,0.1949,0.1935,0.1884,0.1881,0.1911,0.1909,0.1907,0.1906,0,0,0,0,0,0,0,0.2133,0.2125,0.2051,0.2062,0.2059,0.2054,0.2047,0.2012,0.1983,0.2017,0.2016,0.2009,0.1953,0.1939,0.1934,0.188,0.1911,0.1908,0.1906,0.1904,0.1796,0.1795,0,0,0,0,0,0,0.214,0.2128,0.2053,0.2049,0.2096,0.2051,0.2044,0.2027,0.1984,0.1978,0.2008,0.2008,0.1944,0.1938,0.1931,0.1887,0.1907,0.1904,0.1902,0.1796,0.1795,0.1795,0,0,0,0,0,0,0.2142,0.2134,0.2055,0.2088,0.2078,0.2049,0.203,0.2025,0.2011,0.1978,0.1972,0.1999,0.1945,0.1936,0.1898,0.1884,0.1902,0.1899,0.1797,0.1796,0.1795,0.1799,0,0,0,0,0,0,0.2145,0.2134,0.2122,0.2088,0.2076,0.2025,0.2029,0.2023,0.2005,0.2005,0.1967,0.1962,0.1944,0.1904,0.1895,0.188,0.1897,0.1798,0.1797,0.1795,0.18,0.1798,0.1796,0,0,0,0,0,0.2149,0.2125,0.2122,0.2113,0.206,0.2024,0.2017,0.2,0.2004,0.1991,0.197,0.1963,0.1888,0.19,0.189,0.1874,0.1799,0.1797,0.1795,0.18,0.1798,0.1796,0,0,0,0,0,0,0.2156,0.212,0.2116,0.208,0.2056,0.2022,0.2004,0.1998,0.197,0.197,0.1948,0.194,0.1903,0.1885,0.1899,0.1838,0.1843,0.1839,0.185,0.1848,0.1846,0.185,0.1894,0,0,0,0,0,0.2153,0.2129,0.2098,0.2069,0.2057,0.2033,0.2017,0.2006,0.1978,0.1967,0.1943,0.1915,0.1886,0.1866,0.1837,0.1798,0.1788,0.1782,0.178,0.1779,0.1775,0.1751,0.1747,0.1788,0.1788,0.1788,0,0,0.2147,0.2125,0.211,0.207,0.205,0.2023,0.2024,0.1996,0.1975,0.1962,0.1925,0.1907,0.1875,0.1836,0.1818,0.1819,0.1762,0.1776,0.1775,0.1772,0.1749,0.1745,0.1742,0.1787,0.1787,0.1788,0,0,0.2122,0.2104,0.2077,0.2057,0.2027,0.2012,0.2005,0.1973,0.196,0.1924,0.1914,0.1888,0.1837,0.1814,0.1796,0.1764,0.1756,0.1755,0.1744,0.1722,0.1719,0.1716,0.1702,0.1698,0.1752,0.1752,0.1752,0,0.2118,0.2079,0.2064,0.2036,0.2018,0.2008,0.198,0.1961,0.1922,0.1909,0.1912,0.1849,0.1826,0.1781,0.1774,0.176,0.175,0.1758,0.1721,0.1718,0.1715,0.1701,0.1697,0.1752,0.1752,0.1752,0.1752,0,0.2074,0.2047,0.2029,0.1994,0.1974,0.1946,0.1925,0.1907,0.1898,0.1881,0.1844,0.1817,0.1781,0.1771,0.1761,0.1724,0.1726,0.1726,0.1731,0.1711,0.1698,0.1693,0.1752,0.1752,0.1752,0.1752,0,0,0.2049,0.2007,0.2,0.1984,0.1951,0.1929,0.19,0.1868,0.1852,0.1826,0.18,0.1758,0.1757,0.1737,0.1725,0.1705,0.1679,0.1707,0.1706,0.1701,0.1635,0.1634,0.1629,0.1675,0.1674,0.1673,0.1637,0,0.2018,0.1968,0.1954,0.1911,0.1885,0.1876,0.1851,0.1827,0.1811,0.1785,0.1767,0.1737,0.174,0.1727,0.1708,0.1687,0.1665,0.1689,0.1648,0.1647,0.1654,0.1622,0.1621,0.1588,0.1632,0.1631,0.1631,0,0.1975,0.195,0.1905,0.1875,0.1863,0.1841,0.181,0.1787,0.1759,0.1749,0.1727,0.1716,0.1684,0.1694,0.1648,0.1665,0.1647,0.1634,0.1633,0.1626,0.1636,0.1612,0.1577,0.1571,0.1623,0.1624,0.1624,0,0.1958,0.1914,0.1881,0.1867,0.1832,0.1817,0.1801,0.1774,0.1756,0.1728,0.1715,0.1684,0.1667,0.1642,0.1623,0.1632,0.1578,0.1586,0.1567,0.1567,0.1553,0.1554,0.1513,0.1547,0.1547,0.1547,0.1547,0,0.1924,0.1896,0.1873,0.1852,0.182,0.1805,0.1773,0.1757,0.1734,0.1708,0.1699,0.1675,0.1653,0.1625,0.161,0.1574,0.1566,0.1556,0.1551,0.1555,0.1556,0.1541,0.1542,0.1546,0.1546,0.1546,0.1546,0,0.1899,0.1883,0.1846,0.1816,0.1808,0.1786,0.176,0.1739,0.1724,0.1692,0.1683,0.1658,0.1626,0.1606,0.1564,0.1554,0.1513,0.1511,0.1523,0.152,0.1501,0.1502,0.1446,0.1437,0.148,0.148,0.1479,0,0.1877,0.1855,0.1824,0.1808,0.1792,0.1766,0.1747,0.1731,0.1712,0.1679,0.1662,0.1629,0.1602,0.155,0.1527,0.1495,0.149,0.1473,0.1485,0.1489,0.1487,0.1487,0.1484,0.147,0.1469,0.1469,0.1469,0,0.1838,0.1831,0.1806,0.1778,0.1757,0.1733,0.171,0.1696,0.1676,0.1655,0.1622,0.1602,0.156,0.1527,0.1493,0.1475,0.1467,0.1466,0.1459,0.1461,0.1468,0.1462,0.1514,0.1466,0.1467,0.1467,0.1467,0.1467,0.1812,0.1792,0.1767,0.1739,0.1721,0.1699,0.1678,0.1661,0.1634,0.16,0.1592,0.1558,0.153,0.1484,0.1466,0.1438,0.144,0.143,0.1428,0.1425,0.1423,0.1475,0.1432,0.1432,0.1432,0.1432,0.1432,0,0.177,0.1755,0.1729,0.1698,0.1675,0.1674,0.1648,0.1629,0.1599,0.1575,0.155,0.1512,0.148,0.1456,0.1423,0.1405,0.14,0.1396,0.1396,0.1391,0.1424,0.1432,0.14,0.14,0.14,0.14,0.14,0.14,0.1746,0.1712,0.1703,0.1659,0.1643,0.1611,0.1596,0.1576,0.1556,0.1516,0.149,0.1475,0.145,0.1416,0.1386,0.1379,0.1366,0.1362,0.1355,0.1386,0.1389,0.1392,0.1399,0.136,0.136,0.1323,0.1323,0.1323]}]]